NABEO-1 & KICK STAGE (43692 NORAD) Tracking and Keplerian Element Data

This shows tracking and keplerian element data for the satellite.

Feedback or suggestion? Click here.




ElementValue
Catalog43692
NameNABEO-1 & KICK STAGE
Epoch Orbit454
Epoch Day345.21936729
Epoch Year2018
RAAN83.1735
Inclination85.0355
Eccentricity0.0018249
Argument of Perigee157.2892
Mean Anonmoly202.916
Mean Motion15.19487827
Decay Rate1.449E-05
L11 43692U 18088C 18345.21936729 .00001449 00000-0 66176-4 0 9997
L22 43692 85.0355 83.1735 0018249 157.2892 202.9160 15.19487827 4542

Live tracking and technical data element details for NABEO-1 & KICK STAGE (NORAD 43692). NABEO-1 & KICK STAGE can be tracked NOW for your location showing map with azimuth and elevation plus other details from your city location.

Track the satellite on the map from your city or location and see movement details for azimuth, elevation, latitude, longitude, range, height, and movement on the map or in text.







IsCatalogInMostPopularTable: catalog: 43692, numindb: 100
Update: records affected: 1



GetName: 43692 NABEO-1 & KICK STAGE

Hit Count: updated at: Sun, 26 May 2019 19:35:49 GMT